Weather History for KSNL - February, 2013

Change the Weather History Date:

Tuesday, February 5, 2013

  Actual Average (KOKC) Record (KOKC)
Temperature  
Mean Temperature 53 °F 41 °F  
Max Temperature 71 °F 52 °F 77 °F (1942)
Min Temperature 35 °F 30 °F 3 °F (1989)
Degree Days  
Heating Degree Days 12 24  
Month to date heating degree days 120  
Since 1 July heating degree days 2273  
Growing Degree Days 3 (Base 50)    
Moisture  
Dew Point 43 °F    
Average Humidity 76    
Maximum Humidity 100    
Minimum Humidity 37    
Precipitation  
Precipitation 0.00 in 0.05 in 1.05 in (1987)
Month to date precipitation 0.24  
Year to date precipitation 1.63  
Snow  
Snow 0.00 in 0.10 in 2.30 in (2002)
Month to date snowfall 0.4  
Since 1 July snowfall 5.7  
Snow Depth -    
Sea Level Pressure  
Sea Level Pressure 30.00 in    
Wind  
Wind Speed 1 mph (ESE)    
Max Wind Speed 6 mph    
Max Gust Speed -    
Visibility 9 miles    
Events Fog    
T = Trace of Precipitation, MM = Missing Value Source: NWS Daily Summary

Daily Weather History Graph

Daily Weather History Graph

Search for Another Location

Airport or City:

Trip Planner

Search our weather history database for the weather conditions in past years. The results will help you decide how hot, cold, wet, or windy it might be!

Date:

Astronomy

Feb. 05, 2013 Rise Set
Actual Time 7:23 AM CST 6:00 PM CST
Civil Twilight 6:57 AM CST 6:26 PM CST
Nautical Twilight 6:27 AM CST 6:57 PM CST
Astronomical Twilight 5:57 AM CST 7:26 PM CST
Moon 3:02 AM CST (2/5) 1:23 PM CST (2/5)
Length of Visible Light 11h 29m
Length of Day
10h 36m
Waning Crescent, 26% of the Moon is Illuminated
Feb 5
Waning Crescent
Feb 10
New
Feb 17
First Quarter
Feb 25
Full
Mar 4
Last Quarter

Hourly Weather History & Observations

Time (CST) Temp. Windchill Dew Point Humidity Pressure Visibility Wind Dir Wind Speed Gust Speed Precip Events Conditions
12:15 AM 42.8 °F - 33.8 °F 70% 29.97 in 10.0 mi Calm Calm - N/A   Clear
12:35 AM 41.0 °F - 35.6 °F 81% 29.97 in 10.0 mi Calm Calm - N/A   Clear
12:55 AM 42.8 °F 41.1 °F 35.6 °F 76% 29.96 in 10.0 mi NNE 3.5 mph - N/A   Clear
1:15 AM 42.8 °F - 33.8 °F 70% 29.96 in 10.0 mi Calm Calm - N/A   Clear
1:35 AM 41.0 °F - 33.8 °F 76% 29.95 in 10.0 mi Calm Calm - N/A   Clear
1:55 AM 41.0 °F - 33.8 °F 76% 29.95 in 10.0 mi Calm Calm - N/A   Clear
2:15 AM 41.0 °F - 35.6 °F 81% 29.95 in 10.0 mi Calm Calm - N/A   Clear
2:35 AM 41.0 °F - 33.8 °F 76% 29.95 in 10.0 mi Calm Calm - N/A   Clear
2:55 AM 42.8 °F - 33.8 °F 70% 29.94 in 10.0 mi Calm Calm - N/A   Clear
3:15 AM 41.0 °F - 33.8 °F 76% 29.94 in 10.0 mi Calm Calm - N/A   Clear
3:35 AM 37.4 °F - 33.8 °F 87% 29.94 in 10.0 mi Calm Calm - N/A   Clear
3:55 AM 41.0 °F - 33.8 °F 76% 29.94 in 10.0 mi Calm Calm - N/A   Clear
4:15 AM 41.0 °F - 33.8 °F 76% 29.94 in 10.0 mi Calm Calm - N/A   Clear
4:35 AM 37.4 °F - 33.8 °F 87% 29.95 in 10.0 mi Calm Calm - N/A   Clear
4:55 AM 37.4 °F - 33.8 °F 87% 29.94 in 10.0 mi Calm Calm - N/A   Clear
5:15 AM 35.6 °F - 33.8 °F 93% 29.95 in 10.0 mi Calm Calm - N/A   Clear
5:35 AM 37.4 °F - 33.8 °F 87% 29.96 in 10.0 mi Calm Calm - N/A   Clear
5:55 AM 37.4 °F - 35.6 °F 93% 29.96 in 10.0 mi Calm Calm - N/A   Clear
6:15 AM 37.4 °F - 33.8 °F 87% 29.97 in 10.0 mi Calm Calm - N/A   Clear
6:35 AM 37.4 °F - 35.6 °F 93% 29.97 in 10.0 mi Calm Calm - N/A   Clear
6:55 AM 35.6 °F - 33.8 °F 93% 29.98 in 10.0 mi Calm Calm - N/A   Clear
7:15 AM 35.6 °F - 33.8 °F 93% 29.98 in 10.0 mi Calm Calm - N/A   Clear
7:35 AM 35.6 °F - 33.8 °F 93% 29.99 in 10.0 mi Calm Calm - N/A   Clear
7:55 AM 37.4 °F - 35.6 °F 93% 30.01 in 10.0 mi Calm Calm - N/A   Clear
8:15 AM 41.0 °F - 37.4 °F 87% 30.02 in 10.0 mi Calm Calm - N/A   Clear
8:35 AM 41.0 °F - 37.4 °F 87% 30.01 in 10.0 mi Calm Calm - N/A   Clear
8:55 AM 42.8 °F - 39.2 °F 87% 30.01 in 10.0 mi Calm Calm - N/A   Clear
9:15 AM 44.6 °F - 39.2 °F 81% 30.02 in 10.0 mi Calm Calm - N/A   Clear
9:35 AM 50.0 °F - 42.8 °F 76% 30.03 in 10.0 mi SSW 4.6 mph - N/A   Clear
9:55 AM 48.2 °F - 46.4 °F 93% 30.04 in 7.0 mi SW 3.5 mph - N/A   Mostly Cloudy
10:15 AM 51.8 °F - 50.0 °F 94% 30.04 in 7.0 mi SW 5.8 mph - N/A   Overcast
10:35 AM 53.6 °F - 50.0 °F 88% 30.04 in 10.0 mi South 4.6 mph - N/A   Scattered Clouds
10:55 AM 53.6 °F - 51.8 °F 94% 30.04 in 10.0 mi South 3.5 mph - N/A   Scattered Clouds
11:15 AM 55.4 °F - 51.8 °F 88% 30.04 in 10.0 mi SSE 3.5 mph - N/A   Clear
11:35 AM 59.0 °F - 53.6 °F 82% 30.04 in 10.0 mi Calm Calm - N/A   Clear
11:55 AM 60.8 °F - 53.6 °F 77% 30.04 in 10.0 mi Calm Calm - N/A   Clear
12:15 PM 60.8 °F - 53.6 °F 77% 30.04 in 10.0 mi Calm Calm - N/A   Clear
12:35 PM 62.6 °F - 53.6 °F 72% 30.03 in 10.0 mi Calm Calm - N/A   Clear
12:55 PM 62.6 °F - 53.6 °F 72% 30.02 in 10.0 mi Calm Calm - N/A   Clear
1:15 PM 64.4 °F - 55.4 °F 73% 30.02 in 10.0 mi Calm Calm - N/A   Clear
1:35 PM 66.2 °F - 53.6 °F 64% 30.01 in 10.0 mi Calm Calm - N/A   Clear
1:55 PM 68.0 °F - 53.6 °F 60% 30.01 in 10.0 mi North 4.6 mph - N/A   Clear
2:15 PM 68.0 °F - 53.6 °F 60% 30.00 in 10.0 mi Calm Calm - N/A   Clear
2:35 PM 68.0 °F - 51.8 °F 56% 30.00 in 10.0 mi Calm Calm - N/A   Clear
2:55 PM 68.0 °F - 46.4 °F 46% 30.00 in 10.0 mi Calm Calm - N/A   Clear
3:15 PM 69.8 °F - 46.4 °F 43% 29.99 in 10.0 mi North 3.5 mph - N/A   Clear
3:35 PM 71.6 °F - 46.4 °F 41% 29.99 in 10.0 mi Calm Calm - N/A   Clear
3:55 PM 71.6 °F - 46.4 °F 41% 29.99 in 10.0 mi East 3.5 mph - N/A   Clear
4:15 PM 71.6 °F - 46.4 °F 41% 29.99 in 10.0 mi Calm Calm - N/A   Clear
4:35 PM 69.8 °F - 44.6 °F 40% 29.99 in 10.0 mi Calm Calm - N/A   Clear
5:15 PM 68.0 °F - 42.8 °F 40% 29.99 in 10.0 mi NE 3.5 mph - N/A   Clear
5:55 PM 66.2 °F - 39.2 °F 37% 29.99 in 10.0 mi NE 3.5 mph - N/A   Clear
6:15 PM 64.4 °F - 39.2 °F 40% 29.99 in 10.0 mi ENE 4.6 mph - N/A   Clear
6:35 PM 62.6 °F - 39.2 °F 42% 30.00 in 10.0 mi ENE 3.5 mph - N/A   Clear
6:55 PM 62.6 °F - 37.4 °F 39% 30.01 in 10.0 mi ENE 4.6 mph - N/A   Clear
7:15 PM 60.8 °F - 37.4 °F 42% 30.01 in 10.0 mi East 4.6 mph - N/A   Clear
7:35 PM 60.8 °F - 37.4 °F 42% 30.02 in 10.0 mi East 3.5 mph - N/A   Clear
7:55 PM 59.0 °F - 44.6 °F 59% 30.02 in 10.0 mi SSE 4.6 mph - N/A   Clear
8:15 PM 59.0 °F - 51.8 °F 77% 30.03 in 10.0 mi South 4.6 mph - N/A   Clear
8:35 PM 55.4 °F - 53.6 °F 94% 30.04 in 10.0 mi South 3.5 mph - N/A   Clear
8:55 PM 53.6 °F - 53.6 °F 100% 30.04 in 10.0 mi Calm Calm - N/A   Clear
9:15 PM 53.6 °F - 53.6 °F 100% 30.04 in 7.0 mi Calm Calm - N/A   Clear
9:35 PM 53.6 °F - 53.6 °F 100% 30.04 in 5.0 mi Calm Calm - N/A   Clear
9:55 PM 53.6 °F - 53.6 °F 100% 30.05 in 4.0 mi Calm Calm - N/A   Clear
10:15 PM 51.8 °F - 51.8 °F 100% 30.05 in 3.0 mi Calm Calm - N/A   Clear
10:35 PM 51.8 °F - 51.8 °F 100% 30.05 in 7.0 mi Calm Calm - N/A   Clear
10:55 PM 51.8 °F - 51.8 °F 100% 30.05 in 0.5 mi Calm Calm - N/A Fog Fog
11:15 PM 51.8 °F - 51.8 °F 100% 30.05 in 0.2 mi Calm Calm - N/A Fog Fog
11:35 PM 50.0 °F - 50.0 °F 100% 30.05 in 0.2 mi Calm Calm - N/A Fog Fog
11:55 PM 50.0 °F - 50.0 °F 100% 30.04 in 0.2 mi Calm Calm - N/A Fog Fog